Regional Weather Roundup
Issued by NWS

Home | Current Version | Previous Version | Graphics & Text | Print | Product List | Glossary On
Versions: 1 2 3 4 5 6 7 8 9 10 11 12 13 14 15 16 17 18 19 20 21 22 23 24 25 26 27 28 29 30 31 32 33 34 35 36 37 38 39 40 41 42 43 44 45 46 47 48 49 50
000
ASUS45 KCYS 260310
RWRWY

WYOMING REGIONAL WEATHER ROUNDUP
NATIONAL WEATHER SERVICE CHEYENNE WY
900 PM MDT WED MAR 25 2015

NOTE:  "FAIR" INDICATES FEW OR NO CLOUDS BELOW 12,000 FEET
WITH NO SIGNIFICANT WEATHER AND/OR OBSTRUCTIONS TO VISIBILITY.

WYZ001-260400-
YELLOWSTONE NATIONAL PARK

CITY           SKY/WX    TMP DP  RH WIND       PRES   REMARKS
LK YELLOWSTONE   N/A     26  19  74 MISG      30.31R
W YELLOWSTONE  NOT AVBL

$$
WYZ002>013-054>058-071-098>099-260400-
NORTHERN WYOMING

CITY           SKY/WX    TMP DP  RH WIND       PRES   REMARKS
JACKSON        FAIR      32  21  64 SW6       30.32R WCI  26
CODY           CLOUDY    43  19  39 W18G29    30.18R
GREYBULL       MOCLDY    48  17  29 W8        30.15R
WORLAND        FAIR      37  23  56 SW5       30.16R WCI  33
SHERIDAN       FAIR      39  29  67 CALM      30.15S
BUFFALO        FAIR      36  27  69 W6        30.16S WCI  31
GILLETTE       FAIR      31  27  85 S7        30.17S WCI  24
HULETT         FAIR      32  28  86 S6        30.18S WCI  26
NEWCASTLE      FAIR      32  23  69 N7        30.21R WCI  26

$$
WYZ014>020-022>026-101>103-260400-
CENTRAL WYOMING

CITY           SKY/WX    TMP DP  RH WIND       PRES   REMARKS
BIG PINEY      FAIR      29  15  56 N10       30.31R WCI  20
PINEDALE       MOCLDY    28  21  74 NW6       30.32R WCI  22
DUBOIS         FAIR      30  14  51 NW17      30.24S WCI  18
LANDER         FAIR      36  15  42 W8        30.18R WCI  30
RIVERTON       FAIR      41  15  35 NW29G38   30.18R
CASPER         FAIR      28  22  78 CALM      30.18S
DOUGLAS        FAIR      31  26  82 SE3       30.20R

$$
WYZ021-027>030-104>119-260400-
SOUTHERN WYOMING

CITY           SKY/WX    TMP DP  RH WIND       PRES   REMARKS
EVANSTON       FAIR      32  18  56 W7        30.36R WCI  26
FORT BRIDGER   FAIR      33  19  56 CALM      30.37R
ROCK SPRINGS   FAIR      35  15  44 W22G28    30.29R WCI  23
DIXON          FAIR      32  17  54 CALM      30.29R
RAWLINS        FAIR      38   8  29 W16G25    30.21R WCI  29
SARATOGA       FAIR      32  18  55 MISG      30.24R
LARAMIE        FAIR      25  15  66 W8        30.22R WCI  16
CHEYENNE       FAIR      29  27  92 S3        30.23R
TORRINGTON     FAIR      37  25  61 N6        30.21S WCI  32
PINE BLUFFS    FAIR      30  28  93 W5        30.25R WCI  25

$$


USA.gov is the U.S. government's official web portal to all federal, state and local government web resources and services.